This demonstration page uses our WeatherBlox Daily Observations layout. Learn more.

Hourly Observations for January 15, 2016

Temp ( °F °C ) Dew Point ( °F °C ) Humidity (%) Winds ( mph kmh ) Pressure ( in mb ) Visibility ( mi km ) Precip ( " mm )
12:15 am 00:15 Cloudy 37 3 30 -1 75 75 NW 12 19 29.68 1005 10 16.09344 0 0
12:35 am 00:35 Cloudy 37 3 30 -1 75 75 NNW 12 19 29.68 1005 10 16.09344 0 0
12:55 am 00:55 Cloudy 37 3 28 -2 70 70 NNW 18 30 29.71 1006 10 16.09344 0 0
1:15 am 01:15 Cloudy 36 2 28 -2 75 75 NNW 18 30 29.74 1007 10 16.09344 0 0
1:35 am 01:35 Cloudy 36 2 28 -2 75 75 NNW 17 28 29.74 1007 10 16.09344 0 0
1:55 am 01:55 Cloudy 36 2 28 -2 75 75 NNW 12 19 29.74 1007 10 16.09344 0 0
2:15 am 02:15 Mostly Cloudy 34 1 28 -2 81 81 NNW 16 26 29.74 1007 10 16.09344 0 0
2:35 am 02:35 Partly Cloudy 32 0 27 -3 80 80 NNW 13 20 29.77 1008 10 16.09344 0 0
2:55 am 02:55 Clear 32 0 27 -3 80 80 NNW 15 24 29.77 1008 10 16.09344 0 0
3:15 am 03:15 Clear 32 0 25 -4 75 75 NNW 18 30 29.77 1008 10 16.09344 0 0
3:35 am 03:35 Clear 32 0 25 -4 75 75 NNW 14 22 29.77 1008 10 16.09344 0 0
3:55 am 03:55 Clear 30 -1 25 -4 80 80 N 13 20 29.8 1009 10 16.09344 0 0
4:15 am 04:15 Clear 30 -1 25 -4 80 80 N 16 26 29.8 1009 10 16.09344 0 0
4:35 am 04:35 Clear 30 -1 25 -4 80 80 N 15 24 29.8 1009 10 16.09344 0 0
4:55 am 04:55 Clear 30 -1 25 -4 80 80 NNW 14 22 29.83 1010 10 16.09344 0 0
5:15 am 05:15 Clear 30 -1 23 -5 75 75 N 14 22 29.8 1009 10 16.09344 0 0
5:35 am 05:35 Clear 28 -2 23 -5 80 80 NNW 12 19 29.83 1010 10 16.09344 0 0
5:55 am 05:55 Clear 28 -2 23 -5 80 80 N 13 20 29.83 1010 10 16.09344 0 0
6:15 am 06:15 Mostly Cloudy 28 -2 25 -4 86 86 NNW 13 20 29.83 1010 10 16.09344 0 0
6:35 am 06:35 Cloudy 30 -1 25 -4 80 80 NNW 9 15 29.85 1011 10 16.09344 0 0
6:55 am 06:55 Cloudy 30 -1 25 -4 80 80 NNW 13 20 29.85 1011 10 16.09344 0 0
7:15 am 07:15 Cloudy 30 -1 25 -4 80 80 NNW 9 15 29.85 1011 10 16.09344 0 0
7:35 am 07:35 Mostly Cloudy 28 -2 23 -5 80 80 NW 6 9 29.85 1011 10 16.09344 0 0
7:55 am 07:55 Partly Cloudy 27 -3 23 -5 86 86 NW 7 11 29.88 1012 10 16.09344 0 0
8:15 am 08:15 Sunny 27 -3 23 -5 86 86 NW 8 13 29.88 1012 10 16.09344 0 0
8:35 am 08:35 Sunny 28 -2 25 -4 86 86 NNW 9 15 29.85 1011 10 16.09344 0 0
8:55 am 08:55 Partly Cloudy 28 -2 25 -4 86 86 NNW 8 13 29.88 1012 10 16.09344 0 0
9:15 am 09:15 Cloudy 30 -1 25 -4 80 80 NNW 14 22 29.88 1012 10 16.09344 0 0
9:35 am 09:35 Mostly Cloudy 30 -1 25 -4 80 80 NNW 16 26 29.88 1012 10 16.09344 0 0
9:55 am 09:55 Mostly Cloudy 30 -1 25 -4 80 80 NNW 12 19 29.88 1012 10 16.09344 0 0
10:15 am 10:15 Mostly Cloudy 32 0 25 -4 75 75 NNW 14 22 29.88 1012 10 16.09344 0 0
10:35 am 10:35 Mostly Cloudy 32 0 25 -4 75 75 NNW 13 20 29.88 1012 10 16.09344 0 0
10:55 am 10:55 Mostly Cloudy 34 1 25 -4 70 70 NNW 10 17 29.85 1011 10 16.09344 0 0
11:15 am 11:15 Partly Cloudy 34 1 25 -4 70 70 NNW 12 19 29.85 1011 10 16.09344 0 0
11:35 am 11:35 Mostly Cloudy 34 1 25 -4 70 70 NNW 13 20 29.85 1011 10 16.09344 0 0
11:55 am 11:55 Cloudy 36 2 25 -4 65 65 NNW 10 17 29.85 1011 10 16.09344 0 0
12:15 pm 12:15 Cloudy 36 2 25 -4 65 65 NNW 15 24 29.85 1011 10 16.09344 0 0
12:35 pm 12:35 Cloudy 36 2 25 -4 65 65 NNW 14 22 29.85 1011 10 16.09344 0 0
12:55 pm 12:55 Mostly Cloudy 36 2 25 -4 65 65 NNW 13 20 29.85 1011 10 16.09344 0 0
1:15 pm 13:15 Cloudy 36 2 27 -3 70 70 N 13 20 29.85 1011 10 16.09344 0 0
1:35 pm 13:35 Cloudy 37 3 27 -3 65 65 N 12 19 29.85 1011 10 16.09344 0 0
1:55 pm 13:55 Mostly Cloudy 37 3 27 -3 65 65 N 14 22 29.85 1011 10 16.09344 0 0
2:15 pm 14:15 Partly Cloudy 37 3 27 -3 65 65 N 9 15 29.85 1011 10 16.09344 0 0
2:35 pm 14:35 Partly Cloudy 37 3 25 -4 60 60 NNW 10 17 29.85 1011 10 16.09344 0 0
2:55 pm 14:55 Partly Cloudy 37 3 27 -3 65 65 N 12 19 29.85 1011 10 16.09344 0 0
3:15 pm 15:15 Mostly Cloudy 37 3 27 -3 65 65 N 8 13 29.85 1011 10 16.09344 0 0
3:35 pm 15:35 Partly Cloudy 39 4 27 -3 61 61 N 7 11 29.83 1010 10 16.09344 0 0
3:55 pm 15:55 Partly Cloudy 37 3 25 -4 60 60 N 9 15 29.85 1011 10 16.09344 0 0
4:15 pm 16:15 Sunny 36 2 25 -4 65 65 NNE 7 11 29.85 1011 10 16.09344 0 0
4:35 pm 16:35 Mostly Cloudy 36 2 27 -3 70 70 NNE 5 7 29.85 1011 10 16.09344 0 0
4:55 pm 16:55 Mostly Cloudy 36 2 27 -3 70 70 NE 8 13 29.85 1011 10 16.09344 0 0
5:15 pm 17:15 Mostly Cloudy 34 1 27 -3 75 75 NE 9 15 29.85 1011 10 16.09344 0 0
5:35 pm 17:35 Mostly Cloudy 32 0 25 -4 75 75 NE 5 7 29.91 1013 10 16.09344 0 0
5:55 pm 17:55 Cloudy 32 0 25 -4 75 75 E 5 7 29.91 1013 10 16.09344 0 0
6:15 pm 18:15 Cloudy 32 0 25 -4 75 75 ENE 6 9 29.91 1013 10 16.09344 0 0
6:35 pm 18:35 Cloudy 32 0 25 -4 75 75 ENE 7 11 29.91 1013 10 16.09344 0 0
6:55 pm 18:55 Cloudy 32 0 25 -4 75 75 E 7 11 29.91 1013 10 16.09344 0 0
7:15 pm 19:15 Cloudy 32 0 25 -4 75 75 Calm 29.94 1014 10 16.09344 0 0
7:35 pm 19:35 Cloudy 32 0 25 -4 75 75 Calm 29.94 1014 10 16.09344 0 0
7:55 pm 19:55 Cloudy 32 0 25 -4 75 75 Calm 29.97 1015 10 16.09344 0 0
8:15 pm 20:15 Cloudy 30 -1 25 -4 80 80 Calm 29.97 1015 10 16.09344 0 0
8:35 pm 20:35 Cloudy 32 0 25 -4 75 75 Calm 29.97 1015 10 16.09344 0 0
8:55 pm 20:55 Cloudy 32 0 25 -4 75 75 Calm 29.97 1015 10 16.09344 0 0
9:15 pm 21:15 Cloudy 30 -1 25 -4 80 80 Calm 29.97 1015 10 16.09344 0 0
9:35 pm 21:35 Cloudy 32 0 25 -4 75 75 Calm 30 1016 10 16.09344 0 0
9:55 pm 21:55 Cloudy 30 -1 27 -3 86 86 Calm 30 1016 10 16.09344 0 0
10:15 pm 22:15 Cloudy 30 -1 25 -4 80 80 Calm 30 1016 10 16.09344 0 0
10:35 pm 22:35 Cloudy 30 -1 25 -4 80 80 NNE 6 9 30 1016 10 16.09344 0 0
10:55 pm 22:55 Cloudy 30 -1 27 -3 86 86 Calm 30 1016 10 16.09344 0 0
11:15 pm 23:15 Cloudy 30 -1 27 -3 86 86 NNE 5 7 30 1016 10 16.09344 0 0
11:35 pm 23:35 Cloudy 30 -1 27 -3 86 86 NNE 5 7 30 1016 10 16.09344 0 0
11:55 pm 23:55 Cloudy 28 -2 27 -3 93 93 NE 5 7 30.06 1018 10 16.09344 0 0

Powered by AerisWeather